Vorticity
6 6 7 7 8 8 8 8 8 8 8 8 8 8 7 7 6 6 6 5 4 7 8 8 8 10 16 19 16 12 11 12 14 9 5 5 4 3 3 4 4 5
6 6 7 8 8 9 9 8 9 9 9 9 9 10 10 9 9 7 7 7 6 7 7 6 6 7 11 17 20 18 13 13 14 9 3 3 6 8 6 4 3 4
6 7 7 8 8 8 8 9 9 9 10 11 11 11 11 11 10 10 9 8 8 7 6 5 6 7 7 10 15 18 16 14 10 5 -0 4 12 11 5 3 4 4
6 7 7 8 8 8 8 8 9 10 10 11 13 13 13 13 13 12 11 10 9 8 8 7 5 5 6 7 9 12 15 16 15 12 6 6 9 5 0 3 5 5
5 7 7 7 8 8 8 9 9 10 11 12 13 13 14 15 15 15 14 12 11 11 11 9 7 6 5 6 6 8 12 13 14 17 13 8 7 3 3 7 6 4
5 7 7 7 8 8 8 9 9 10 11 11 12 12 13 14 15 16 16 16 14 13 13 13 12 9 6 6 6 6 9 9 11 16 16 14 12 7 5 7 7 6
5 6 7 7 8 8 9 9 9 10 11 11 11 10 12 13 14 16 16 17 17 16 17 16 16 16 12 8 6 5 6 8 10 12 12 16 15 11 8 6 6 8
5 6 7 8 8 8 9 9 9 10 10 11 11 10 11 12 14 16 15 15 16 18 21 21 21 21 17 11 8 7 6 6 9 8 6 11 16 16 15 9 3 6
5 6 7 8 8 8 8 8 9 10 11 11 10 11 12 13 14 16 14 12 11 12 16 20 23 25 23 22 21 15 8 4 7 9 6 7 10 12 15 15 9 5
4 6 7 8 9 8 8 9 9 11 11 11 11 12 15 17 16 14 10 8 8 7 8 11 17 23 24 23 22 16 12 9 7 8 9 8 7 8 11 16 16 9
4 6 7 8 9 8 9 10 10 11 11 10 12 14 18 21 19 13 7 5 6 7 7 6 9 16 20 23 26 22 16 15 10 7 9 9 7 7 10 14 18 18
4 6 7 8 9 8 8 10 10 11 11 10 13 16 22 25 21 13 6 4 6 7 7 8 7 8 10 15 26 31 25 18 14 10 8 9 7 5 5 9 15 19
5 5 7 9 10 8 8 9 10 12 11 10 13 18 24 25 21 13 6 3 5 6 7 8 8 8 7 4 9 24 32 26 17 12 8 9 14 10 3 5 10 14
5 5 7 10 10 9 8 8 9 12 12 12 14 19 24 23 18 10 5 3 3 6 8 9 9 8 10 8 4 10 26 31 24 18 11 8 14 15 8 6 8 9
5 4 7 9 10 10 8 7 9 11 12 13 16 20 21 18 13 7 3 3 3 6 9 11 13 10 9 12 8 5 15 27 29 24 17 9 6 9 9 8 9 10
6 4 6 9 10 10 8 7 8 9 12 14 17 22 20 13 9 6 4 4 5 10 13 13 15 14 11 13 11 7 9 19 29 29 22 16 9 7 9 10 12 12
6 4 5 8 9 10 9 7 7 7 10 13 15 22 23 16 9 6 5 5 7 11 14 14 14 13 12 11 10 12 10 10 22 31 27 21 16 11 8 7 11 12
7 5 5 7 8 10 10 8 7 6 7 11 13 17 22 21 16 10 5 3 6 10 12 13 13 12 11 10 8 12 12 7 13 27 31 27 20 14 9 5 9 12
8 6 5 7 8 9 10 9 9 7 6 8 10 13 17 20 20 18 12 5 3 6 11 13 13 11 11 12 9 9 11 9 9 18 28 30 22 15 11 5 5 11
8 6 6 8 7 7 9 9 9 9 7 7 8 10 13 14 17 19 18 15 8 4 7 10 13 13 12 13 13 10 10 11 9 11 22 32 26 17 13 9 6 10
8 7 7 9 8 8 8 8 10 10 9 8 7 7 10 12 13 15 16 19 17 10 7 7 10 12 12 13 15 13 11 11 10 9 16 29 29 19 13 10 9 10
8 7 9 9 8 8 7 7 9 10 10 10 8 7 9 10 12 13 13 17 20 17 12 8 8 10 11 12 15 15 14 12 11 9 12 23 30 22 13 12 11 11
8 7 9 10 9 9 8 8 8 9 10 11 9 8 8 8 10 12 11 13 18 20 17 11 9 10 11 11 14 15 15 14 13 11 10 17 26 24 17 15 14 9
8 8 9 11 10 9 9 9 8 9 10 10 11 10 8 8 9 10 10 11 14 19 20 15 11 10 11 12 13 15 15 14 15 15 11 13 21 25 19 14 13 12
7 9 10 10 10 10 10 10 9 9 9 9 11 10 9 9 8 8 9 9 11 16 19 17 13 11 11 13 14 15 15 14 16 17 14 11 15 23 21 11 9 14
8 10 10 10 10 10 10 11 10 10 10 10 11 10 10 10 9 8 8 7 9 13 17 17 14 11 11 14 15 16 16 16 17 19 17 11 11 20 24 16 9 11
Height
5887 5886 5885 5884 5883 5882 5880 5879 5878 5877 5876 5876 5875 5874 5873 5873 5873 5872 5872 5873 5873 5873 5873 5873 5873 5873 5872 5872 5873 5874 5875 5877 5879 5879 5880 5883 5885 5886 5886 5887 5887 5888
5885 5884 5883 5882 5881 5880 5879 5878 5876 5875 5874 5873 5873 5872 5871 5871 5870 5870 5869 5869 5870 5870 5871 5870 5870 5869 5869 5869 5869 5870 5872 5873 5874 5875 5876 5878 5880 5882 5883 5884 5884 5885
5883 5883 5881 5880 5879 5878 5877 5875 5874 5873 5872 5871 5870 5869 5868 5868 5867 5867 5866 5866 5866 5866 5867 5867 5866 5866 5866 5867 5867 5868 5869 5870 5870 5871 5872 5874 5876 5877 5878 5880 5881 5882
5881 5880 5879 5878 5877 5875 5874 5873 5871 5870 5869 5868 5866 5866 5865 5864 5863 5863 5862 5862 5861 5862 5862 5863 5863 5863 5863 5864 5865 5866 5866 5867 5867 5868 5869 5870 5872 5873 5874 5875 5877 5878
5879 5877 5876 5875 5873 5872 5871 5869 5868 5866 5865 5864 5862 5861 5861 5860 5859 5858 5857 5857 5856 5857 5857 5858 5859 5859 5859 5860 5861 5862 5862 5863 5864 5864 5865 5867 5868 5868 5869 5870 5872 5873
5877 5875 5873 5872 5870 5869 5867 5866 5864 5862 5861 5860 5858 5857 5856 5855 5854 5854 5853 5852 5852 5851 5851 5852 5854 5854 5855 5856 5857 5857 5858 5859 5859 5859 5860 5862 5863 5864 5865 5866 5867 5868
5874 5873 5871 5869 5868 5866 5864 5863 5861 5859 5857 5856 5854 5853 5852 5851 5850 5849 5849 5848 5847 5846 5845 5846 5847 5848 5850 5851 5852 5852 5853 5854 5854 5854 5855 5857 5858 5859 5861 5862 5863 5863
5871 5870 5868 5867 5865 5863 5861 5859 5858 5856 5854 5852 5850 5849 5847 5846 5846 5845 5844 5844 5843 5842 5841 5841 5841 5842 5843 5845 5847 5848 5848 5849 5849 5849 5851 5852 5853 5854 5856 5857 5858 5859
5868 5866 5865 5863 5862 5860 5859 5857 5854 5852 5851 5849 5847 5845 5843 5842 5841 5841 5840 5840 5839 5838 5837 5836 5836 5836 5837 5838 5841 5842 5843 5843 5844 5845 5846 5847 5848 5849 5850 5851 5852 5855
5864 5863 5861 5859 5858 5856 5855 5853 5851 5849 5847 5845 5844 5842 5840 5838 5837 5837 5837 5836 5835 5835 5834 5833 5832 5832 5832 5833 5834 5835 5837 5838 5838 5840 5841 5842 5842 5843 5844 5845 5847 5850
5862 5860 5858 5856 5854 5852 5851 5849 5848 5846 5843 5842 5840 5838 5836 5834 5833 5833 5833 5832 5832 5831 5830 5829 5828 5827 5827 5827 5828 5829 5830 5832 5833 5834 5835 5836 5838 5838 5839 5840 5843 5846
5860 5858 5856 5854 5852 5850 5847 5845 5844 5842 5839 5837 5835 5833 5831 5830 5829 5829 5829 5828 5828 5827 5826 5825 5824 5823 5822 5823 5823 5823 5824 5826 5827 5828 5830 5831 5832 5834 5834 5836 5838 5841
5857 5855 5853 5851 5849 5847 5845 5842 5840 5838 5836 5833 5831 5829 5827 5826 5825 5825 5825 5824 5824 5823 5822 5821 5820 5819 5818 5818 5818 5817 5818 5819 5820 5822 5824 5826 5828 5829 5829 5830 5833 5836
5854 5852 5850 5848 5846 5844 5842 5840 5837 5835 5832 5830 5827 5825 5823 5822 5821 5821 5821 5820 5820 5819 5818 5817 5815 5814 5813 5814 5813 5812 5812 5813 5814 5816 5818 5820 5823 5824 5825 5826 5828 5830
5850 5848 5846 5845 5843 5841 5839 5837 5834 5832 5830 5827 5824 5821 5820 5819 5818 5817 5817 5816 5815 5814 5813 5812 5811 5809 5808 5808 5808 5807 5807 5808 5808 5810 5812 5814 5817 5819 5820 5821 5823 5825
5846 5844 5843 5841 5839 5837 5835 5833 5831 5829 5826 5824 5821 5818 5816 5815 5814 5813 5813 5812 5811 5809 5808 5807 5806 5805 5804 5803 5803 5802 5802 5803 5803 5804 5806 5807 5810 5813 5815 5816 5817 5819
5842 5841 5839 5837 5835 5833 5831 5829 5827 5825 5823 5820 5818 5815 5813 5812 5811 5810 5809 5808 5806 5805 5803 5802 5801 5800 5799 5798 5798 5797 5797 5798 5799 5799 5800 5801 5804 5807 5809 5810 5811 5813
5839 5837 5835 5833 5831 5829 5828 5825 5823 5821 5819 5816 5814 5812 5810 5808 5806 5805 5804 5803 5802 5800 5799 5798 5796 5795 5794 5793 5793 5792 5791 5792 5794 5794 5794 5795 5798 5800 5802 5804 5806 5808
5834 5833 5831 5829 5827 5825 5823 5821 5819 5817 5815 5813 5811 5808 5806 5804 5802 5801 5800 5798 5797 5796 5794 5793 5792 5791 5789 5788 5788 5787 5787 5787 5788 5789 5789 5790 5791 5793 5796 5799 5801 5803
5829 5828 5826 5825 5823 5821 5819 5817 5815 5813 5810 5808 5806 5804 5802 5800 5798 5797 5795 5793 5792 5791 5789 5788 5787 5786 5784 5783 5783 5782 5782 5782 5783 5784 5784 5784 5785 5787 5789 5793 5796 5798
5824 5823 5822 5820 5818 5816 5814 5812 5810 5808 5806 5804 5802 5800 5798 5796 5794 5792 5790 5789 5787 5785 5784 5783 5782 5781 5780 5779 5778 5777 5777 5777 5778 5779 5779 5780 5780 5781 5783 5787 5790 5793
5820 5818 5817 5815 5813 5811 5809 5807 5805 5803 5802 5800 5798 5796 5793 5791 5790 5788 5786 5784 5782 5780 5779 5778 5777 5776 5775 5774 5773 5772 5772 5772 5772 5773 5774 5775 5775 5775 5777 5781 5785 5788
5815 5814 5812 5810 5808 5806 5804 5803 5801 5799 5797 5795 5793 5791 5789 5787 5785 5783 5781 5779 5777 5775 5774 5773 5772 5771 5770 5769 5768 5768 5767 5767 5767 5767 5768 5770 5770 5770 5772 5775 5779 5783
5811 5809 5807 5805 5803 5801 5800 5798 5796 5794 5792 5790 5788 5786 5784 5782 5780 5778 5776 5774 5772 5770 5768 5767 5766 5765 5765 5764 5763 5762 5762 5761 5761 5762 5762 5763 5764 5765 5767 5770 5772 5775
5806 5804 5802 5800 5798 5797 5794 5793 5791 5789 5786 5784 5782 5781 5779 5777 5775 5773 5771 5769 5767 5765 5763 5762 5761 5760 5759 5759 5758 5757 5756 5756 5757 5757 5758 5758 5759 5760 5762 5764 5766 5769
5801 5799 5797 5795 5793 5791 5789 5787 5785 5783 5781 5779 5777 5775 5773 5772 5769 5768 5766 5764 5762 5760 5758 5757 5756 5755 5754 5753 5752 5752 5751 5751 5752 5752 5753 5754 5755 5755 5757 5759 5761 5763